{"data":{"norad_id":41744,"intl_designator":"2016-052A","name":"USA 270","alt_names":[],"object_type":"PAYLOAD","status":"ACTIVE","operator":null,"country":"US","launch_date":"2016-08-19","launch_site_code":"AFETR","launch_vehicle":null,"mission":null,"orbit_class":"UNKNOWN","rcs_meters":null,"size_class":null,"mass_kg":null,"dimensions":null,"purposes":["comms"],"wikipedia_slug":null,"has_3d_model":false,"image_url":null,"decayed_at":null,"tle_current":{"epoch":"2026-05-24T08:49:35.275296Z","epoch_age_seconds":126108,"freshness":"FRESH","line1":"1 41744U 16052A   26144.36776939  .00000073  00000+0  00000+0 0  9999","line2":"2 41744   4.1376  77.4847 0008631 334.8808 145.8544  1.00279232 27895","mean_motion":1.00279232,"eccentricity":0.0008631,"inclination_deg":4.1376,"raan_deg":77.4847,"arg_perigee_deg":334.8808,"mean_anomaly_deg":145.8544,"bstar":0,"rev_number":2789,"period_min":1435.9902556892,"perigee_km":35748.11684755,"apogee_km":35820.898004358,"semimajor_km":42162.644425954,"source":"CELESTRAK","updated_at":"2026-05-25T13:38:14.006132Z"}}}